When you browse on this site, cookies collect data to enhance your experience and personalize the content and advertising you see.
Visit our Privacy Policy to learn more. By continuing to use the site, you agree to this use of cookies and data.

Météo par heure à Plymouth

Ce jour, 3 Juillet, Vendredi

Heure Température Précipitation Vent Pression Humidité
00:00 +11°C° 0 mm 4 m/s 762 mmHg 94%
01:00 +10°C° 0 mm 5 m/s 762 mmHg 95%
02:00 +10°C° 0 mm 5 m/s 761 mmHg 96%
03:00 +10°C° 0 mm 5 m/s 761 mmHg 96%
04:00 +10°C° 0 mm 6 m/s 761 mmHg 95%
05:00 +11°C° 0 mm 6 m/s 762 mmHg 93%
06:00 +12°C° 0 mm 7 m/s 762 mmHg 92%
07:00 +14°C° 0 mm 7 m/s 762 mmHg 88%
08:00 +13°C° 0 mm 8 m/s 762 mmHg 84%
09:00 +15°C° 0 mm 8 m/s 762 mmHg 80%
10:00 +16°C° 0 mm 8 m/s 762 mmHg 81%
11:00 +16°C° 0 mm 9 m/s 762 mmHg 82%
12:00 +16°C° 0 mm 9 m/s 762 mmHg 82%
13:00 +16°C° 0 mm 9 m/s 761 mmHg 84%
14:00 +15°C° 0 mm 9 m/s 761 mmHg 85%
15:00 +14°C° 0 mm 10 m/s 761 mmHg 86%
16:00 +14°C° 0.2 mm 10 m/s 761 mmHg 89%
17:00 +13°C° 0.2 mm 10 m/s 760 mmHg 92%
18:00 +13°C° 0.2 mm 10 m/s 760 mmHg 96%
19:00 +13°C° 0.5 mm 10 m/s 760 mmHg 96%
20:00 +15°C° 0.5 mm 9 m/s 760 mmHg 97%
21:00 +15°C° 0.5 mm 9 m/s 760 mmHg 97%
22:00 +15°C° 0.5 mm 9 m/s 759 mmHg 98%
23:00 +16°C° 0.5 mm 9 m/s 759 mmHg 98%

Demain, 4 Juillet, Samedi

Heure Température Précipitation Vent Pression Humidité
00:00 +16°C° 0.5 mm 9 m/s 759 mmHg 98%
01:00 +16°C° 0.2 mm 9 m/s 758 mmHg 98%
02:00 +16°C° 0.2 mm 9 m/s 758 mmHg 98%
03:00 +16°C° 0.2 mm 9 m/s 758 mmHg 98%
04:00 +16°C° 0.4 mm 9 m/s 758 mmHg 97%
05:00 +16°C° 0.4 mm 9 m/s 758 mmHg 97%
06:00 +16°C° 0.4 mm 8 m/s 757 mmHg 97%
07:00 +16°C° 0.3 mm 8 m/s 758 mmHg 97%
08:00 +16°C° 0.3 mm 8 m/s 758 mmHg 97%
09:00 +16°C° 0.3 mm 7 m/s 758 mmHg 97%
10:00 +17°C° 0.1 mm 8 m/s 758 mmHg 97%
11:00 +17°C° 0.1 mm 8 m/s 758 mmHg 97%
12:00 +17°C° 0.1 mm 8 m/s 758 mmHg 96%
13:00 +17°C° 0.1 mm 8 m/s 758 mmHg 96%
14:00 +17°C° 0.1 mm 8 m/s 758 mmHg 96%
15:00 +17°C° 0.1 mm 8 m/s 758 mmHg 96%
16:00 +17°C° 0 mm 8 m/s 758 mmHg 95%
17:00 +17°C° 0 mm 8 m/s 758 mmHg 94%
18:00 +17°C° 0 mm 8 m/s 758 mmHg 93%
19:00 +16°C° 0 mm 8 m/s 758 mmHg 92%
20:00 +16°C° 0 mm 8 m/s 759 mmHg 92%
21:00 +16°C° 0 mm 7 m/s 759 mmHg 92%
22:00 +16°C° 0 mm 8 m/s 759 mmHg 93%
23:00 +16°C° 0 mm 8 m/s 759 mmHg 93%

Après-demain, 5 Juillet, Dimanche

Heure Température Précipitation Vent Pression Humidité
00:00 +17°C° 0 mm 9 m/s 758 mmHg 93%
01:00 +17°C° 0 mm 9 m/s 758 mmHg 93%
02:00 +17°C° 0 mm 9 m/s 757 mmHg 92%
03:00 +17°C° 0 mm 10 m/s 757 mmHg 91%
04:00 +17°C° 0.1 mm 10 m/s 757 mmHg 92%
05:00 +17°C° 0.1 mm 10 m/s 757 mmHg 93%
06:00 +17°C° 0.1 mm 10 m/s 757 mmHg 94%
07:00 +17°C° 0.2 mm 9 m/s 757 mmHg 93%
08:00 +16°C° 0.2 mm 9 m/s 757 mmHg 92%
09:00 +16°C° 0.2 mm 9 m/s 758 mmHg 91%
10:00 +16°C° 0.1 mm 9 m/s 758 mmHg 87%
11:00 +16°C° 0.1 mm 9 m/s 758 mmHg 83%
12:00 +16°C° 0.1 mm 8 m/s 758 mmHg 79%
13:00 +15°C° 0 mm 9 m/s 759 mmHg 78%
14:00 +15°C° 0 mm 9 m/s 759 mmHg 76%
15:00 +14°C° 0 mm 10 m/s 759 mmHg 74%
16:00 +14°C° 0 mm 10 m/s 759 mmHg 75%
17:00 +13°C° 0 mm 10 m/s 759 mmHg 75%
18:00 +13°C° 0 mm 10 m/s 760 mmHg 76%
19:00 +12°C° 0 mm 9 m/s 760 mmHg 76%
20:00 +12°C° 0 mm 9 m/s 760 mmHg 77%
21:00 +11°C° 0 mm 9 m/s 761 mmHg 77%
22:00 +11°C° 0 mm 9 m/s 761 mmHg 78%
23:00 +11°C° 0 mm 9 m/s 761 mmHg 79%

6 Juillet, Lundi

Heure Température Précipitation Vent Pression Humidité
00:00 +11°C° 0 mm 9 m/s 761 mmHg 79%
01:00 +11°C° 0 mm 9 m/s 761 mmHg 81%
02:00 +11°C° 0 mm 9 m/s 761 mmHg 83%
03:00 +10°C° 0 mm 9 m/s 761 mmHg 85%
04:00 +11°C° 0 mm 8 m/s 762 mmHg 85%
05:00 +11°C° 0 mm 8 m/s 762 mmHg 85%
06:00 +11°C° 0 mm 7 m/s 763 mmHg 85%
07:00 +12°C° 0 mm 7 m/s 763 mmHg 82%
08:00 +14°C° 0 mm 7 m/s 764 mmHg 79%
09:00 +14°C° 0 mm 7 m/s 764 mmHg 76%
10:00 +15°C° 0 mm 7 m/s 765 mmHg 74%
11:00 +15°C° 0 mm 6 m/s 765 mmHg 72%
12:00 +16°C° 0 mm 6 m/s 766 mmHg 70%
13:00 +16°C° 0 mm 6 m/s 766 mmHg 70%
14:00 +16°C° 0 mm 6 m/s 766 mmHg 70%
15:00 +16°C° 0 mm 6 m/s 767 mmHg 69%
16:00 +16°C° 0 mm 5 m/s 767 mmHg 71%
17:00 +15°C° 0 mm 5 m/s 767 mmHg 73%
18:00 +15°C° 0 mm 5 m/s 767 mmHg 74%
19:00 +13°C° 0 mm 4 m/s 767 mmHg 80%
20:00 +12°C° 0 mm 4 m/s 767 mmHg 86%
21:00 +11°C° 0 mm 3 m/s 767 mmHg 92%
22:00 +10°C° 0 mm 3 m/s 767 mmHg 93%
23:00 +10°C° 0 mm 2 m/s 767 mmHg 93%

7 Juillet, Mardi

Heure Température Précipitation Vent Pression Humidité
00:00 +10°C° 0 mm 2 m/s 767 mmHg 93%
01:00 +10°C° 0 mm 2 m/s 767 mmHg 93%
02:00 +10°C° 0 mm 2 m/s 766 mmHg 93%
03:00 +10°C° 0 mm 2 m/s 766 mmHg 93%
04:00 +12°C° 0 mm 2 m/s 766 mmHg 92%
05:00 +13°C° 0 mm 2 m/s 766 mmHg 91%
06:00 +14°C° 0 mm 2 m/s 766 mmHg 90%
07:00 +15°C° 0 mm 2 m/s 766 mmHg 85%
08:00 +16°C° 0 mm 3 m/s 766 mmHg 80%
09:00 +17°C° 0 mm 3 m/s 767 mmHg 74%
10:00 +18°C° 0 mm 3 m/s 767 mmHg 72%
11:00 +18°C° 0 mm 4 m/s 767 mmHg 70%
12:00 +19°C° 0 mm 4 m/s 767 mmHg 68%
13:00 +19°C° 0 mm 4 m/s 767 mmHg 68%
14:00 +17°C° 0 mm 5 m/s 767 mmHg 69%
15:00 +17°C° 0 mm 5 m/s 767 mmHg 69%
16:00 +18°C° 0 mm 4 m/s 767 mmHg 71%
17:00 +17°C° 0 mm 4 m/s 767 mmHg 74%
18:00 +15°C° 0 mm 4 m/s 766 mmHg 76%
19:00 +14°C° 0 mm 4 m/s 767 mmHg 81%
20:00 +12°C° 0 mm 3 m/s 767 mmHg 86%
21:00 +11°C° 0 mm 3 m/s 767 mmHg 91%
22:00 +10°C° 0 mm 3 m/s 767 mmHg 91%
23:00 +10°C° 0 mm 2 m/s 767 mmHg 91%

8 Juillet, Mercredi

Heure Température Précipitation Vent Pression Humidité
00:00 +10°C° 0 mm 2 m/s 767 mmHg 91%
01:00 +10°C° 0 mm 2 m/s 767 mmHg 91%
02:00 +10°C° 0 mm 2 m/s 767 mmHg 91%
03:00 +10°C° 0 mm 2 m/s 766 mmHg 91%
04:00 +12°C° 0 mm 2 m/s 766 mmHg 90%
05:00 +13°C° 0 mm 1 m/s 767 mmHg 89%
06:00 +14°C° 0 mm 1 m/s 767 mmHg 88%
07:00 +15°C° 0 mm 1 m/s 767 mmHg 85%
08:00 +17°C° 0 mm 2 m/s 767 mmHg 82%
09:00 +19°C° 0 mm 2 m/s 767 mmHg 79%
10:00 +19°C° 0 mm 2 m/s 767 mmHg 79%
11:00 +20°C° 0 mm 2 m/s 767 mmHg 78%
12:00 +21°C° 0 mm 3 m/s 767 mmHg 78%
13:00 +21°C° 0 mm 3 m/s 767 mmHg 78%
14:00 +21°C° 0 mm 3 m/s 766 mmHg 77%
15:00 +21°C° 0 mm 3 m/s 766 mmHg 77%
16:00 +21°C° 0 mm 4 m/s 766 mmHg 79%
17:00 +20°C° 0 mm 4 m/s 766 mmHg 81%
18:00 +20°C° 0 mm 4 m/s 766 mmHg 83%
19:00 +18°C° 0 mm 3 m/s 766 mmHg 87%
20:00 +16°C° 0 mm 3 m/s 766 mmHg 90%
21:00 +14°C° 0 mm 3 m/s 766 mmHg 94%
22:00 +13°C° 0 mm 3 m/s 766 mmHg 94%
23:00 +14°C° 0 mm 2 m/s 765 mmHg 95%
Voir plus